Location: Ohmer (historical)
(38.0096°N, 122.0227°W)
Time: 06:19:53
(UTC+00:00)

FengYun 1-2 T - Pass Details

Date: 14 February 2026
Orbit: 844 x 880 km, 98.8° (Epoch: 5 March)

Event Time Altitude Azimuth Distance (km) Brightness Sun altitude
Rises 13:03:55 0° 9° (N) 3,411 7.5 -23.3°
Reaches altitude 10° 13:06:18 10° 7° (N) 2,472 6.7 -22.8°
Maximum altitude 13:11:43 65° 287° (WNW) 929 4.1 -21.7°
Drops below altitude 10° 13:17:06 10° 206° (SSW) 2,463 6.4 -20.7°
Enters shadow 13:17:14 - 206° (SSW) 2,513 6.4 -20.6°
